Location: Hains Lake
(37.8540°N, 99.8578°W)
Time: 17:50:18
(UTC+00:00)

Courier 1B Rocket - Pass Details

Date: 01 December 2021
Orbit: 920 x 1202 km, 28.2° (Epoch: 25 January)

Event Time Altitude Azimuth Distance (km) Brightness Sun altitude
Exits shadow 11:23:31 18° 207° (SSW) 2,178 6.6 -25.7°
Maximum altitude 11:24:04 18° 201° (SSW) 2,174 6.7 -25.6°
Drops below altitude 10° 11:28:25 10° 160° (SSE) 2,773 7.7 -24.8°
Sets 11:32:04 0° 143° (SE) 3,780 8.8 -24.0°
